Back to catalog

STARLINK-5271

AliveCommunicationsVLEO
NORAD 54194·PAYLOAD·🇺🇸 United States

Launched Oct 28, 2022 from Vandenberg Space Force Base

Loading…

Next Passes (next 24 hours)

TLE

FreshSource: CelesTrak SupGP

Epoch: Sep 14, 2026, 14:22 UTC

1 54194C 22141AP  26257.59909722 -.00767010  00000+0 -22319-1 0  2575
2 54194  53.1587 217.0185 0001310  96.5051  22.0617 15.35252679    13

Track STARLINK-5271 in real time with AllMySat

Download on the App Store